Cosmos 1833 Rocket - Orbit

View from above orbital plane
View from above orbital plane
View from above satellite
View from above satellite

Ground track
Ground track

The orbit data is extracted from the following two-line orbital elements,

1 17590U 87027B   13137.80479063  .00000306  00000-0  17750-3 0  4063
2 17590 071.0052 050.1234 0003628 036.0917 324.0451 14.16580179352910
Epoch (UTC): 17 May 2013 19:18:53
Eccentricity: 0.0003628
inclination: 71.0052°
perigee height: 834 km
apogee height: 839 km
right ascension of ascending node: 50.1234°
argument of perigee: 36.0917°
revolutions per day: 14.16580179
mean anomaly at epoch: 324.0451°
orbit number at epoch: 35291

The dashed part of the orbit path shows where the satellite is in the earth's shadow,  

Developed and maintained by Chris Peat, Heavens-Above GmbH. Please read the updated FAQ before sending e-mail. Imprint. DLR